Regional Weather Roundup
Issued by NWS

Home | Current Version | Previous Version | Text Only | Print | Product List | Glossary Off
Versions: 1 2 3 4 5 6 7 8 9 10 11 12 13 14 15 16 17 18 19 20 21 22 23 24 25 26 27

000
ASUS45 KCYS 270810
RWRWY

WYOMING REGIONAL WEATHER ROUNDUP
NATIONAL WEATHER SERVICE CHEYENNE WY
200 AM MDT SAT MAY 27 2017

NOTE:  "FAIR" INDICATES FEW OR NO CLOUDS BELOW 12,000 FEET
WITH NO SIGNIFICANT WEATHER AND/OR OBSTRUCTIONS TO VISIBILITY.

WYZ001-270900-
YELLOWSTONE NATIONAL PARK

CITY           SKY/WX    TMP DP  RH WIND       PRES   REMARKS
LK YELLOWSTONE   N/A     29  29 100 CALM      30.16R
W YELLOWSTONE  NOT AVBL

$$
WYZ002>013-054>058-071-098>099-270900-
NORTHERN WYOMING

CITY           SKY/WX    TMP DP  RH WIND       PRES   REMARKS
JACKSON        FAIR      34  34 100 CALM      30.14R
CODY           FAIR      43  35  73 W5        30.07S
GREYBULL       FAIR      43  39  86 SE3       30.05R
WORLAND        FAIR      40  40 100 S7        30.05R
SHERIDAN       FAIR      41  37  86 N3        30.02R
BUFFALO        FAIR      42  35  76 W8        30.04S
GILLETTE       CLOUDY    46  44  93 W9        30.01S
HULETT         FAIR      45  43  93 S9        30.02R
NEWCASTLE      PTSUNNY   45  43  93 N8        30.02F

$$
WYZ014>020-022>026-101>103-270900-
CENTRAL WYOMING

CITY           SKY/WX    TMP DP  RH WIND       PRES   REMARKS
BIG PINEY      FAIR      32  30  92 N9        30.11R WCI  24
PINEDALE       PTSUNNY   34  32  93 NW10      30.10R WCI  26
DUBOIS         CLOUDY    36  34  93 NW3       30.12S
LANDER         LGT RAIN  42  39  89 W7        30.07S
RIVERTON       CLOUDY    42  38  85 W6        30.08R
CASPER         CLOUDY    42  41  96 N3        30.05F
DOUGLAS        CLOUDY    45  43  93 NW5       30.04F

$$
WYZ021-027>030-104>119-270900-
SOUTHERN WYOMING

CITY           SKY/WX    TMP DP  RH WIND       PRES   REMARKS
EVANSTON       FAIR      35  31  85 NW6       30.13R WCI  30
KEMMERER         N/A     36  32  87 SW6       30.12S WCI  31
FORT BRIDGER   CLOUDY    39  32  75 W5        30.16R
ROCK SPRINGS   FAIR      37  34  89 NE6       30.09R WCI  32
DIXON            N/A     41  37  87 E12       30.09F
RAWLINS        CLOUDY    42  36  79 W6        30.06S
SARATOGA       PTSUNNY   39  37  93 SE9       30.08R WCI  33
LARAMIE        CLOUDY    39  36  89 S12       30.07F WCI  32
CHEYENNE       CLOUDY    42  39  89 NW9       30.06R
TORRINGTON     MOCLDY    45  45 100 NW5       30.00R
PINE BLUFFS    CLOUDY    45  45 100 MISG      30.03R

$$




USA.gov is the U.S. government's official web portal to all federal, state and local government web resources and services.